Wind_Speed
80 74 72 69 68 70 75 79 84 80 86 87 87 97 101 110 115 120 123 123 127 129 128 125 121 122 116 112 104 90 81 73 69 67 65 64 59 57
75 77 73 72 72 76 78 83 79 81 82 97 99 106 109 113 123 127 130 130 135 137 132 134 128 122 115 106 103 90 85 81 79 78 79 76 75 72
80 75 77 77 80 86 83 77 78 87 96 102 107 108 114 123 130 133 129 130 135 135 146 135 129 118 112 104 97 95 97 96 96 93 93 90 86 82
76 79 81 82 81 84 84 86 93 98 99 104 111 117 127 131 135 143 135 141 147 149 144 135 126 117 112 104 102 103 105 107 107 107 105 103 101 99
80 81 81 85 88 95 94 97 99 104 109 112 122 135 135 143 148 149 150 151 154 150 136 126 117 116 112 111 110 114 116 117 117 116 115 112 109 106
87 92 93 99 92 101 102 104 111 115 118 130 139 145 147 152 155 156 152 155 147 143 124 122 121 121 120 126 124 125 127 128 124 119 113 106 100 95
96 101 101 105 105 108 110 111 121 125 132 141 149 152 157 161 158 155 154 147 130 127 122 126 122 131 135 135 137 136 132 129 122 110 104 100 97 95
105 109 109 108 110 115 122 129 133 137 144 148 154 158 162 152 164 157 144 126 126 127 125 126 142 138 145 145 142 131 119 107 103 97 94 92 90 90
112 116 116 118 123 127 131 140 144 148 150 157 157 158 158 161 151 139 135 128 127 129 142 136 146 147 148 143 127 114 105 98 91 84 80 79 79 80
114 116 122 128 131 136 138 142 148 151 154 154 158 154 151 144 140 138 132 133 137 141 146 146 149 144 137 127 114 103 93 85 78 73 70 68 68 69
128 129 133 136 138 143 147 149 149 153 155 156 159 153 147 141 138 137 137 140 142 149 152 143 136 129 124 116 102 91 82 77 73 69 67 65 65 66
136 139 140 143 143 146 148 153 155 157 152 152 150 150 140 135 136 142 143 147 150 150 145 134 126 115 111 105 91 83 77 73 69 65 63 62 61 61
138 141 143 141 145 151 152 151 152 151 148 142 133 132 133 140 144 148 151 151 147 141 130 120 115 107 96 89 88 79 71 66 62 59 57 58 56 56
144 141 146 145 149 151 152 147 140 140 131 131 130 135 139 145 150 152 150 144 138 128 119 111 103 92 85 82 78 76 69 63 56 53 52 52 51 55
147 149 153 151 150 150 135 139 129 129 125 130 135 140 145 148 148 143 141 132 125 118 110 99 90 85 80 75 72 69 65 62 52 52 52 47 46 47
146 141 128 137 119 124 123 128 123 124 130 135 140 144 145 142 139 133 127 121 117 109 97 88 84 79 74 69 65 63 60 59 53 50 47 43 42 42
111 115 118 111 121 115 117 121 126 132 136 139 139 140 136 131 126 120 117 113 104 93 88 82 76 71 67 64 63 58 58 54 50 51 41 39 39 39
102 111 116 111 114 119 123 129 132 134 135 137 136 131 124 120 118 115 108 98 90 85 80 76 72 66 61 58 56 59 53 51 45 44 38 35 34 35
99 106 111 115 120 124 127 127 128 131 133 130 124 119 116 114 111 105 94 87 83 78 73 71 68 63 60 56 48 53 54 44 40 37 34 32 32 32
106 111 116 119 120 120 122 125 127 126 122 118 114 112 110 106 99 90 85 80 76 73 70 66 64 60 56 53 49 42 50 39 36 31 30 30 29 29
111 113 114 116 118 120 120 121 120 117 113 109 108 106 102 94 85 80 77 73 71 69 66 62 59 55 52 49 45 39 42 33 32 27 26 27 27 27
110 113 115 115 115 115 115 113 110 105 103 102 101 96 88 82 78 75 71 69 64 62 62 58 54 50 47 44 39 35 34 28 26 24 24 25 25 25
109 108 109 110 109 108 107 105 102 100 99 97 93 85 78 75 72 69 66 63 60 57 54 53 48 44 41 37 34 31 29 24 23 22 23 23 24 24
Wind_Direction
283 286 288 291 289 292 291 292 294 293 290 293 295 304 304 305 308 308 311 312 313 312 310 310 308 309 308 309 310 309 307 306 301 297 291 289 283 279
283 284 288 290 287 290 292 296 294 296 290 297 301 302 302 304 307 310 310 311 312 312 311 310 308 309 308 308 311 308 305 299 295 292 291 289 286 281
282 285 287 289 284 293 294 295 288 292 295 296 298 300 301 303 304 307 308 308 309 309 311 310 309 308 306 305 305 302 303 302 299 296 292 289 285 281
283 288 285 286 286 291 292 291 290 293 297 296 295 296 300 301 306 306 307 307 309 309 311 305 305 305 302 305 303 299 297 297 298 296 292 288 285 282
279 278 281 283 283 290 289 291 290 292 292 292 295 301 300 303 306 304 309 309 310 310 308 305 303 305 303 301 298 296 296 298 297 294 290 287 283 279
277 280 281 282 280 283 282 285 289 290 292 294 298 302 301 303 304 305 308 308 309 308 304 306 303 301 301 300 302 301 300 299 297 293 289 284 279 271
279 283 280 281 282 283 287 288 290 290 290 293 299 299 302 302 306 306 307 304 306 304 302 302 303 302 303 303 301 300 299 297 294 288 284 279 273 268
277 282 284 282 282 285 285 288 289 290 295 295 297 299 301 305 305 304 306 302 304 302 303 302 302 302 301 301 302 300 298 294 289 284 280 275 270 265
280 281 285 286 285 288 286 289 291 291 294 296 300 301 301 304 306 303 301 299 302 302 301 302 302 303 302 301 300 299 297 293 288 284 280 274 269 264
274 278 281 282 282 284 288 292 291 295 297 299 301 302 302 302 301 301 300 301 302 301 303 303 304 303 302 301 300 298 297 293 290 286 280 275 271 265
277 279 280 282 285 285 289 291 294 296 300 300 300 300 300 300 300 300 301 301 301 302 302 305 303 303 302 301 300 299 296 294 290 286 282 277 272 268
279 281 284 287 288 289 292 291 293 295 298 296 298 299 299 299 299 300 301 301 302 302 303 304 303 302 303 301 300 298 295 292 289 285 282 277 271 267
282 284 286 287 288 289 292 294 295 295 296 294 296 297 297 298 299 300 301 301 303 304 304 304 304 304 303 300 299 297 295 292 289 285 279 274 270 265
284 286 285 290 288 290 293 292 294 294 294 294 295 296 297 297 299 299 301 302 303 304 305 306 305 303 301 299 297 297 297 293 291 286 279 273 268 264
283 282 284 285 288 290 289 289 291 294 293 295 295 297 297 297 298 300 302 303 304 306 307 306 304 302 301 299 298 298 296 293 291 287 282 276 268 262
278 280 281 284 287 286 288 288 290 292 293 294 295 296 296 298 301 302 303 305 306 307 305 304 303 302 301 300 299 297 294 294 293 287 280 277 269 262
282 282 285 288 287 288 289 290 292 292 293 294 294 295 298 301 302 303 305 306 306 305 304 303 302 302 301 299 298 295 294 293 291 287 281 274 266 259
281 283 285 285 287 288 290 291 293 294 294 294 296 300 303 303 304 306 307 305 304 304 304 304 303 302 300 298 298 295 293 292 290 285 281 272 263 256
283 283 285 286 288 290 291 293 294 294 294 298 301 303 303 304 306 306 305 305 305 305 305 304 302 302 300 298 297 294 293 291 288 282 277 269 261 254
284 285 286 288 290 291 293 294 293 294 298 301 303 302 304 305 306 305 305 306 306 305 304 303 302 301 299 298 297 293 290 291 286 280 272 265 257 251
285 287 289 290 292 293 293 293 295 299 302 302 302 304 305 306 305 305 306 306 306 304 303 302 301 300 300 298 297 294 286 289 282 277 267 260 253 247
287 289 290 291 291 291 292 295 299 301 301 302 303 304 305 305 306 307 307 305 304 304 303 302 302 302 299 296 296 291 286 287 278 269 260 254 246 238
289 289 288 290 291 293 297 301 301 301 303 304 305 305 306 307 307 306 306 305 305 304 302 302 303 301 297 296 292 287 285 281 270 261 253 246 238 230
Height
10652 10649 10648 10646 10644 10642 10638 10635 10632 10628 10618 10607 10603 10595 10592 10584 10577 10573 10565 10557 10550 10542 10534 10528 10521 10516 10508 10503 10498 10495 10493 10492 10494 10496 10499 10502 10505 10506
10635 10633 10632 10630 10628 10625 10621 10615 10611 10609 10605 10596 10585 10579 10571 10565 10555 10547 10538 10530 10520 10514 10505 10499 10490 10482 10476 10470 10467 10468 10468 10469 10471 10473 10474 10474 10475 10479
10618 10616 10613 10611 10609 10605 10600 10595 10593 10592 10587 10578 10569 10561 10555 10549 10541 10533 10525 10516 10507 10495 10481 10467 10460 10452 10446 10442 10440 10439 10438 10437 10438 10440 10442 10445 10448 10451
10598 10597 10593 10593 10590 10586 10582 10579 10572 10567 10563 10558 10549 10541 10534 10522 10517 10509 10498 10488 10474 10460 10451 10437 10431 10429 10419 10415 10413 10411 10410 10407 10405 10405 10407 10409 10410 10411
10583 10580 10575 10572 10570 10569 10562 10556 10551 10544 10539 10533 10525 10516 10507 10494 10486 10473 10463 10449 10437 10426 10413 10402 10396 10393 10390 10387 10384 10382 10379 10371 10370 10370 10368 10367 10368 10370
10563 10559 10557 10554 10549 10546 10541 10536 10530 10523 10512 10503 10494 10487 10474 10462 10452 10442 10431 10417 10406 10395 10381 10373 10365 10360 10355 10350 10343 10338 10335 10332 10328 10322 10316 10315 10316 10322
10547 10544 10538 10534 10530 10527 10521 10513 10506 10497 10486 10476 10466 10456 10444 10430 10420 10409 10397 10388 10372 10363 10353 10341 10330 10321 10311 10306 10302 10299 10294 10288 10282 10273 10268 10265 10266 10267
10531 10527 10522 10517 10512 10506 10498 10491 10482 10472 10463 10453 10439 10429 10416 10399 10388 10381 10366 10357 10347 10332 10324 10312 10296 10288 10274 10262 10254 10252 10245 10240 10233 10225 10220 10216 10218 10221
10509 10505 10501 10497 10489 10484 10473 10465 10455 10442 10436 10425 10414 10402 10392 10370 10356 10349 10338 10330 10319 10299 10296 10287 10268 10255 10235 10219 10211 10206 10201 10193 10186 10180 10175 10172 10174 10177
10489 10485 10480 10473 10465 10458 10450 10440 10425 10415 10403 10392 10380 10370 10355 10341 10331 10320 10311 10302 10287 10266 10254 10256 10233 10214 10194 10178 10172 10165 10160 10151 10145 10142 10140 10139 10140 10142
10466 10464 10457 10449 10445 10433 10425 10416 10403 10388 10378 10363 10351 10339 10325 10312 10297 10289 10278 10267 10253 10235 10218 10217 10196 10182 10157 10142 10136 10129 10124 10119 10114 10111 10108 10107 10108 10111
10441 10436 10433 10426 10418 10408 10399 10390 10379 10367 10353 10339 10322 10306 10292 10283 10269 10256 10244 10231 10217 10208 10184 10178 10160 10148 10129 10107 10100 10099 10095 10091 10086 10082 10079 10078 10080 10082
10418 10414 10405 10400 10391 10382 10372 10362 10354 10340 10326 10312 10296 10281 10265 10252 10234 10219 10206 10199 10186 10168 10151 10143 10124 10111 10099 10087 10065 10067 10067 10063 10060 10058 10055 10051 10053 10056
10396 10390 10381 10374 10364 10356 10348 10335 10322 10310 10296 10284 10269 10257 10242 10224 10206 10191 10178 10163 10146 10136 10120 10108 10095 10082 10071 10061 10052 10038 10038 10034 10035 10032 10030 10030 10032 10030
10378 10363 10362 10350 10342 10331 10318 10310 10296 10283 10268 10258 10241 10226 10210 10196 10181 10167 10147 10130 10112 10099 10088 10077 10066 10054 10046 10038 10028 10020 10014 10008 10014 10010 10006 10008 10009 10010
10353 10344 10333 10331 10313 10307 10291 10282 10266 10257 10244 10231 10216 10199 10183 10168 10153 10136 10117 10099 10083 10071 10060 10051 10041 10031 10020 10014 10009 10000 9995 9988 9990 9989 9987 9988 9988 9990
10330 10319 10312 10305 10293 10278 10268 10254 10242 10229 10215 10202 10189 10174 10160 10142 10121 10105 10090 10074 10060 10048 10035 10027 10019 10009 10001 9995 9986 9984 9975 9974 9973 9966 9970 9970 9971 9972
10303 10297 10289 10277 10266 10253 10241 10226 10210 10198 10184 10169 10155 10143 10126 10107 10090 10074 10064 10050 10036 10025 10015 10003 9994 9989 9984 9978 9973 9960 9961 9957 9957 9952 9953 9953 9954 9957
10280 10271 10262 10251 10239 10229 10215 10201 10185 10169 10155 10143 10127 10112 10094 10079 10064 10050 10038 10026 10014 10003 9994 9984 9974 9970 9963 9958 9960 9948 9940 9942 9941 9938 9939 9939 9941 9944
10257 10246 10235 10226 10215 10202 10189 10174 10155 10144 10132 10117 10099 10083 10070 10056 10042 10028 10017 10005 9993 9982 9974 9967 9958 9952 9947 9943 9939 9939 9923 9928 9926 9927 9926 9926 9928 9932
10228 10220 10210 10198 10187 10174 10158 10144 10132 10118 10104 10088 10071 10058 10045 10033 10021 10010 9997 9986 9976 9964 9955 9950 9944 9938 9932 9927 9924 9922 9914 9916 9914 9914 9914 9915 9917 9920
10205 10195 10183 10171 10158 10146 10132 10120 10107 10093 10079 10064 10050 10037 10025 10012 10000 9988 9979 9968 9960 9951 9940 9933 9929 9924 9918 9913 9911 9907 9904 9904 9903 9904 9904 9906 9908 9911
10180 10167 10155 10143 10130 10117 10106 10093 10078 10065 10053 10040 10025 10014 10005 9993 9982 9972 9962 9953 9944 9936 9928 9920 9917 9910 9905 9902 9898 9895 9894 9894 9894 9895 9896 9898 9901 9904